{"data":{"norad_id":45569,"intl_designator":"2020-025AQ","name":"STARLINK-1366","alt_names":[],"object_type":"PAYLOAD","status":"ACTIVE","operator":null,"country":"US","launch_date":"2020-04-22","launch_site_code":"AFETR","launch_vehicle":null,"mission":null,"orbit_class":"UNKNOWN","rcs_meters":null,"size_class":null,"mass_kg":null,"dimensions":null,"purposes":["comms"],"wikipedia_slug":null,"has_3d_model":false,"image_url":null,"decayed_at":null,"tle_current":{"epoch":"2026-05-25T01:12:35.144064Z","epoch_age_seconds":64002,"freshness":"FRESH","line1":"1 45569U 20025AQ  26145.05040676  .00376258  73264-4  63249-3 0  9998","line2":"2 45569  53.0326  11.3848 0004280 256.5302 103.5252 16.02263127338161","mean_motion":16.02263127,"eccentricity":0.000428,"inclination_deg":53.0326,"raan_deg":11.3848,"arg_perigee_deg":256.5302,"mean_anomaly_deg":103.5252,"bstar":0.00063249,"rev_number":33816,"period_min":89.872878913227,"perigee_km":265.30831652171,"apogee_km":270.9975407006,"semimajor_km":6646.2899286112,"source":"CELESTRAK","updated_at":"2026-05-25T13:38:16.423675Z"}}}